星链-6188 (STARLINK-6188 )

导读

STARLINK-6188是美国SpaceX公司星链(Starlink)星座中的卫星,于2023年5月4日发射入轨,属于星链星座扩容的一部分,旨在为全球提供低延迟、高速率的宽带互联网服务,尤其服务偏远地区、移动平台等网络需求场景,依托低轨部署实现覆盖优势。

Basic Information
目录编号:
56376
目录名称:
STARLINK-6188
国际标识:
2023-061C
轨道中心:
EARTH
卫星名称:
星链-6188
卫星全名:
星链-6188 (STARLINK-6188 )
卫星状态:
在轨 (已飞行1220 天)
发射日期:
2023-05-04 UTC
国别 :
美国 (US)
星等 :
--
Orbit Information
数据来源 国际轨道数据 AOE轨道数据
星历时间 2026-09-05T15:23:15+0800
11小时前
查看轨道信息
2026-09-02T08:00:00+0800
3天前
查看轨道信息
半长轴 6861.202km 6861.199km
偏心率 0.0001716 0.000213
轨道倾角 43.003° 43.003°
近地点辐角 277.069° 264.898°
升交点赤经 263.197° 281.879°
平近点角 82.997° 243.275°
近地点 481.887km 481.6km
远地点 484.243km 484.524km
周期 94.267分钟 94.267分钟
每日圈数 15.27575 15.275757
Detailed Information
固有亮度:
5
最大亮度:
2.5
卫星平台:
Starlink v1.5
覆盖范围:
全球
运营商:
太空探索技术公司
运营商所在国:
美国
制造商(研发单位):
太空探索技术公司
制造商所在国:
美国
使用方式:
暂无
Satellite Introduction
星链(Starlink)计划是由太空探索技术公司(SpaceX)提出的一个巨型低轨卫星互联网星座项目,计划在2019年至2024年间在太空搭建由约1.2万颗卫星组成的“星链”网络,其中1584颗将部署在地球上空550千米处的近地轨道,并从2020年开始工作。该卫星仍在工作。
2D Orbit Map
3D Orbit Map
Orbit Altitude Analysis Chart
Orbit Inclination Analysis Chart
Orbit Comprehensive Analysis Chart
View Comprehensive Chart
Conjunction Data List
Event ID Objects TCA Miss Dist (km) Collision Risk Probability Collision Risk Index (CRI) Action
CDM_260908-043205-637606-661121
2026-09-08T
04:32:47+0000
0.807 km
远距离
4.181317E-5 中风险 0.67
CDM_260907-193505-637606-646421
2026-09-07T
19:35:12+0000
0.804 km
远距离
3.626346E-5 中风险 0.66
CDM_260907-074905-637606-646421
2026-09-07T
07:49:03+0000
0.931 km
远距离
2.217697E-5 中风险 0.62
CDM_260907-061405-637606-646421
2026-09-07T
06:14:54+0000
1.083 km
极远距离
1.315711E-5 中风险 0.57
CDM_260908-025805-637606-661121
2026-09-08T
02:58:38+0000
1.378 km
极远距离
6.715316E-6 低风险 0.52
CDM_260908-065405-637605-917221
2026-09-08T
06:54:40+0000
1.428 km
极远距离
5.906926E-6 低风险 0.5
CDM_260908-082805-637605-917221
2026-09-08T
08:28:49+0000
1.611 km
极远距离
4.020369E-6 低风险 0.47
CDM_260907-210505-303705-637621
2026-09-07T
21:05:06+0000
1.659 km
极远距离
3.165156E-6 低风险 0.45
CDM_260907-180105-637606-646421
2026-09-07T
18:01:03+0000
2.394 km
极远距离
1.307486E-6 低风险 0.37
CDM_260907-210905-637606-646421
2026-09-07T
21:09:21+0000
2.513 km
极远距离
1.20006E-6 低风险 0.37